[[{"header":{"parameterUnit":"m.s-1","parameterCategory":2,"la1":30.2992,"la2":30.254,"lo1":-89.0895,"lo2":-89.0443,"dy":0.0025,"dx":0.0025,"nx":19,"ny":19,"refTime":"2026-04-07T09:00:00:Z","depth":"0","parameterNumber":2,"parameterNumberName":"U-component_of_CURRENTS"},"data":[0,0,0,-0.2679,-0.268,-0.2711,-0.2711,-0.2691,-0.269,0,0,0,0,0,0,0,0,0,0,0,-0.2657,-0.2658,-0.2679,-0.268,-0.2711,-0.2711,-0.2691,-0.269,0,0,0,0,0,0,0,0,0,0,0,-0.2657,-0.2657,-0.2658,-0.2681,-0.2711,-0.2711,-0.2691,-0.2679,0,0,0,0,0,0,0,0,0,0,-0.2656,-0.2639,-0.2657,-0.2658,-0.2681,-0.2711,-0.2711,-0.2679,-0.268,-0.2664,0,-0.2671,0,-0.269,-0.2689,-0.2689,0,0,0,-0.2668,-0.2639,-0.2661,-0.2658,-0.2681,-0.2711,-0.2694,-0.268,-0.2681,-0.2664,-0.2671,-0.2671,-0.2689,-0.2689,-0.2688,-0.2738,-0.2738,0,0,-0.2666,-0.2647,-0.266,-0.2661,-0.2691,-0.2693,-0.2695,-0.2681,-0.2673,-0.2671,-0.2671,-0.2689,-0.2688,-0.2688,-0.2737,-0.2738,0,0,0,-0.267,-0.2646,-0.2669,-0.2661,-0.2677,-0.2694,-0.2696,-0.2673,-0.2685,-0.2671,-0.2689,-0.2688,-0.2688,-0.2736,-0.2737,-0.2793,0,0,0,-0.2668,-0.265,-0.2668,-0.2655,-0.2678,-0.2682,-0.2688,-0.2685,-0.2685,-0.2689,-0.2688,-0.2688,-0.2735,-0.2737,-0.279,-0.2823,0,0,0,-0.2656,-0.2648,-0.2656,-0.2655,-0.2677,-0.2683,-0.2693,-0.2686,-0.2696,-0.2689,-0.2688,-0.2735,-0.2737,-0.2787,-0.2818,-0.2835,0,0,0,-0.263,-0.2651,-0.2655,-0.2692,-0.2677,-0.2741,-0.2694,-0.2718,-0.2718,-0.2688,-0.2735,-0.2737,-0.2786,-0.2815,-0.2832,-0.2777,-0.2785,0,0,-0.2649,-0.2653,-0.2681,-0.2687,-0.2756,-0.2736,-0.2799,-0.2767,-0.2737,-0.2731,-0.2733,-0.2791,-0.2817,-0.2835,-0.2875,-0.288,0,0,0,-0.2685,-0.2698,-0.2723,-0.2761,-0.2804,-0.2839,-0.2823,-0.2817,-0.281,-0.2748,-0.281,-0.2825,-0.2834,-0.2795,-0.28,-0.2784,-0.2745,-0.2745,-0.2745,-0.2651,-0.2706,-0.2756,-0.2821,-0.2864,-0.2906,-0.2932,-0.292,-0.2873,-0.2883,-0.2885,-0.2957,-0.2919,-0.2921,-0.2907,-0.2896,-0.2896,-0.2896,-0.2897,-0.2672,-0.2695,-0.2775,-0.2838,-0.29,-0.2946,-0.3011,-0.2996,-0.3015,-0.2964,-0.2968,-0.2874,-0.2929,-0.2912,-0.29,-0.29,-0.2899,-0.2899,-0.2899,-0.2627,-0.2647,-0.2699,-0.2792,-0.2875,-0.2954,-0.3027,-0.3066,-0.3061,-0.3087,-0.3003,-0.3,-0.2971,-0.3065,-0.3065,-0.3065,-0.3065,-0.3066,-0.3066,-0.2536,-0.2601,-0.2625,-0.2744,-0.279,-0.2887,-0.3022,-0.3063,-0.3085,-0.3071,-0.307,-0.3001,-0.3008,-0.2985,-0.3069,-0.3069,-0.3068,-0.3068,-0.3068,-0.2438,-0.2473,-0.2508,-0.255,-0.2679,-0.2734,-0.2918,-0.3018,-0.3073,-0.3071,-0.3034,-0.3056,-0.3029,-0.3023,-0.3,-0.3084,-0.3084,-0.3084,-0.3084,-0.2335,-0.2373,-0.2371,-0.2414,-0.251,-0.2645,-0.2699,-0.2835,-0.2958,-0.2976,-0.3035,-0.2985,-0.2984,-0.2952,-0.2948,-0.2922,-0.2985,-0.2985,-0.2985,-0.2231,-0.2265,-0.2213,-0.2301,-0.2413,-0.2508,-0.2523,-0.2663,-0.2873,-0.2982,-0.3032,-0.3036,-0.2963,-0.2964,-0.2909,-0.2905,-0.2861,0,0]},{"header":{"parameterUnit":"m.s-1","parameterCategory":2,"la1":30.2992,"la2":30.254,"lo1":-89.0895,"lo2":-89.0443,"dy":0.0025,"dx":0.0025,"nx":19,"ny":19,"refTime":"2026-04-07T09:00:00:Z","depth":"0","parameterNumber":3,"parameterNumberName":"V-component_of_CURRENTS"},"data":[0,0,0,-0.0353,-0.0351,-0.0224,-0.0223,-0.0037,-0.0036,0,0,0,0,0,0,0,0,0,0,0,-0.0402,-0.0401,-0.0353,-0.0351,-0.0224,-0.0223,-0.0038,-0.0036,0,0,0,0,0,0,0,0,0,0,0,-0.0402,-0.0401,-0.0401,-0.035,-0.0224,-0.0223,-0.0038,-0.0135,0,0,0,0,0,0,0,0,0,0,-0.0259,-0.0321,-0.0402,-0.0401,-0.035,-0.0225,-0.0223,-0.0139,-0.0129,-0.0094,0,-0.0091,0,-0.0065,-0.0025,-0.0024,0,0,0,-0.033,-0.033,-0.0292,-0.0401,-0.0349,-0.0225,-0.0276,-0.0133,-0.0121,-0.008,-0.0088,-0.0081,-0.0062,-0.0024,-0.0023,0.0101,0.0101,0,0,-0.0338,-0.0374,-0.0301,-0.0286,-0.0336,-0.028,-0.0272,-0.0126,-0.0124,-0.0088,-0.0077,-0.0059,-0.0022,-0.0021,0.0101,0.0101,0,0,0,-0.0371,-0.038,-0.0345,-0.0293,-0.0275,-0.0277,-0.0267,-0.013,-0.0118,-0.0074,-0.0056,-0.0022,-0.0019,0.0101,0.0101,0.0009,0,0,0,-0.0374,-0.04,-0.0349,-0.0369,-0.0279,-0.0206,-0.0275,-0.0128,-0.0111,-0.0057,-0.0021,-0.0018,0.01,0.0101,0.0011,-0.0044,0,0,0,-0.0404,-0.0403,-0.0394,-0.0372,-0.0325,-0.0208,-0.0187,-0.0124,-0.0101,-0.0024,-0.0017,0.01,0.0101,0.0013,-0.004,0.0002,0,0,0,-0.0436,-0.0459,-0.0396,-0.0408,-0.0326,-0.0266,-0.0187,-0.0129,-0.0072,-0.0021,0.01,0.0101,0.0013,-0.0037,0.0003,0.0068,0.0066,0,0,-0.0488,-0.0466,-0.0471,-0.0412,-0.0397,-0.028,-0.0235,-0.0129,-0.0051,0.0058,0.0061,0.001,-0.0039,0.0002,0.0083,0.008,0,0,0,-0.0502,-0.0514,-0.0495,-0.0468,-0.0393,-0.0319,-0.0202,-0.0135,-0.0035,-0.0018,0.0041,0.0014,0.0043,0.0086,0.0084,0.037,0.0102,0.0102,0.0102,-0.062,-0.0575,-0.059,-0.0527,-0.0475,-0.0335,-0.0262,-0.0144,-0.0068,-0.0036,-0.0038,-0.0042,0.0003,0.0002,0.0296,-0.0002,-0.0002,-0.0002,-0.0003,-0.0725,-0.0741,-0.067,-0.0672,-0.0564,-0.0504,-0.0319,-0.0241,-0.0116,-0.0077,-0.0043,0.0014,-0.0005,0.0309,-0.0008,-0.0007,-0.0006,-0.0006,-0.0006,-0.082,-0.0825,-0.0813,-0.0804,-0.0749,-0.0613,-0.0535,-0.0379,-0.0214,-0.0183,-0.006,-0.0057,0.0203,-0.0146,-0.0146,-0.0146,-0.0146,-0.0146,-0.0146,-0.0931,-0.0917,-0.0965,-0.0938,-0.0931,-0.0861,-0.0657,-0.0538,-0.0295,-0.0151,-0.0148,0.0251,-0.0084,-0.0096,-0.0147,-0.0147,-0.0147,-0.0147,-0.0147,-0.1056,-0.1046,-0.1132,-0.115,-0.1128,-0.1085,-0.0882,-0.0564,-0.0387,-0.0246,0.0287,-0.009,-0.004,-0.0037,-0.0045,-0.008,-0.008,-0.008,-0.008,-0.1142,-0.1143,-0.1267,-0.1323,-0.132,-0.1191,-0.0996,-0.06,0.0029,0.0378,0.0476,0.0552,0.0537,0.0626,0.0615,0.0623,0.0758,0.076,0.0761,-0.1223,-0.1256,-0.1361,-0.1408,-0.1409,-0.1286,-0.1067,-0.0559,0.0388,0.0825,0.0865,0.0829,0.0968,0.0921,0.108,0.1041,0.106,0,0]}],[{"header":{"parameterUnit":"m.s-1","parameterCategory":2,"la1":30.2992,"la2":30.254,"lo1":-89.0895,"lo2":-89.0443,"dy":0.0025,"dx":0.0025,"nx":19,"ny":19,"refTime":"2026-04-07T09:00:00:Z","depth":"2","parameterNumber":2,"parameterNumberName":"U-component_of_CURRENTS"},"data":[0,0,0,-0.2549,-0.255,-0.2587,-0.2587,-0.2569,-0.2569,0,0,0,0,0,0,0,0,0,0,0,-0.2526,-0.2526,-0.2549,-0.255,-0.2587,-0.2587,-0.2569,-0.2569,0,0,0,0,0,0,0,0,0,0,0,-0.2526,-0.2526,-0.2526,-0.255,-0.2587,-0.2587,-0.2569,-0.2555,0,0,0,0,0,0,0,0,0,0,-0.2526,-0.251,-0.2526,-0.2526,-0.2551,-0.2587,-0.2587,-0.2555,-0.2556,-0.2538,0,-0.2547,0,-0.2566,-0.2567,-0.2567,0,0,0,-0.2538,-0.2509,-0.2531,-0.2526,-0.2551,-0.2587,-0.2567,-0.2556,-0.2557,-0.2539,-0.2547,-0.2547,-0.2566,-0.2567,-0.2567,-0.2615,-0.2615,0,0,-0.2536,-0.2518,-0.2531,-0.2532,-0.2564,-0.2566,-0.2568,-0.2557,-0.255,-0.2547,-0.2547,-0.2566,-0.2567,-0.2567,-0.2614,-0.2615,0,0,0,-0.2538,-0.2517,-0.254,-0.2532,-0.2549,-0.2567,-0.257,-0.255,-0.2562,-0.2547,-0.2565,-0.2567,-0.2567,-0.2613,-0.2614,-0.2672,0,0,0,-0.2536,-0.2519,-0.2539,-0.2527,-0.255,-0.2558,-0.2563,-0.2562,-0.2562,-0.2565,-0.2567,-0.2566,-0.2612,-0.2614,-0.2669,-0.2701,0,0,0,-0.2523,-0.2518,-0.2526,-0.2526,-0.2551,-0.2559,-0.2569,-0.2563,-0.2574,-0.2567,-0.2566,-0.2612,-0.2614,-0.2666,-0.2696,-0.2713,0,0,0,-0.2498,-0.2521,-0.2525,-0.2563,-0.2551,-0.2614,-0.257,-0.2596,-0.2597,-0.2567,-0.2613,-0.2614,-0.2665,-0.2693,-0.271,-0.2638,-0.2645,0,0,-0.2518,-0.2522,-0.255,-0.2557,-0.2625,-0.2608,-0.2671,-0.2643,-0.2615,-0.2607,-0.2609,-0.267,-0.2695,-0.2712,-0.2734,-0.2738,0,0,0,-0.2553,-0.2567,-0.2592,-0.263,-0.2672,-0.2708,-0.2696,-0.2691,-0.2688,-0.2626,-0.2688,-0.2702,-0.271,-0.2662,-0.2666,-0.2622,-0.2622,-0.2622,-0.2622,-0.2523,-0.2576,-0.2625,-0.2688,-0.2731,-0.2774,-0.2801,-0.2792,-0.2747,-0.276,-0.2762,-0.2835,-0.2785,-0.2787,-0.2773,-0.2774,-0.2774,-0.2774,-0.2774,-0.2544,-0.2567,-0.2645,-0.2706,-0.2768,-0.2815,-0.2879,-0.2868,-0.2889,-0.284,-0.2844,-0.2742,-0.2794,-0.2779,-0.2778,-0.2777,-0.2777,-0.2777,-0.2776,-0.2503,-0.2522,-0.2574,-0.2665,-0.2747,-0.2825,-0.2898,-0.2938,-0.2936,-0.2963,-0.2869,-0.2866,-0.2853,-0.2943,-0.2943,-0.2943,-0.2944,-0.2944,-0.2944,-0.2416,-0.248,-0.2504,-0.2621,-0.2666,-0.2762,-0.2896,-0.2935,-0.2953,-0.2936,-0.2934,-0.2891,-0.2886,-0.2863,-0.2948,-0.2947,-0.2946,-0.2946,-0.2946,-0.2322,-0.2358,-0.2392,-0.2434,-0.2559,-0.2591,-0.2786,-0.2876,-0.2934,-0.2926,-0.2915,-0.2914,-0.2884,-0.2879,-0.2856,-0.2934,-0.2934,-0.2934,-0.2934,-0.2223,-0.226,-0.2259,-0.23,-0.2391,-0.2496,-0.2486,-0.2521,-0.2652,-0.2638,-0.265,-0.2578,-0.2586,-0.2534,-0.2537,-0.2505,-0.2491,-0.249,-0.2489,-0.2123,-0.2156,-0.2105,-0.2189,-0.2294,-0.234,-0.2226,-0.2076,-0.2177,-0.2464,-0.2492,-0.292,-0.2846,-0.2847,-0.279,-0.2786,-0.2743,0,0]},{"header":{"parameterUnit":"m.s-1","parameterCategory":2,"la1":30.2992,"la2":30.254,"lo1":-89.0895,"lo2":-89.0443,"dy":0.0025,"dx":0.0025,"nx":19,"ny":19,"refTime":"2026-04-07T09:00:00:Z","depth":"2","parameterNumber":3,"parameterNumberName":"V-component_of_CURRENTS"},"data":[0,0,0,-0.0346,-0.0344,-0.0219,-0.0219,-0.0034,-0.0033,0,0,0,0,0,0,0,0,0,0,0,-0.0394,-0.0393,-0.0346,-0.0344,-0.0219,-0.0219,-0.0035,-0.0033,0,0,0,0,0,0,0,0,0,0,0,-0.0394,-0.0393,-0.0393,-0.0343,-0.022,-0.0218,-0.0035,-0.013,0,0,0,0,0,0,0,0,0,0,-0.0252,-0.0314,-0.0393,-0.0393,-0.0343,-0.022,-0.0218,-0.0135,-0.0124,-0.009,0,-0.0087,0,-0.0061,-0.0022,-0.0021,0,0,0,-0.0324,-0.0323,-0.0286,-0.0393,-0.0342,-0.022,-0.027,-0.0129,-0.0117,-0.0076,-0.0084,-0.0077,-0.0058,-0.0021,-0.002,0.0103,0.0103,0,0,-0.033,-0.0367,-0.0294,-0.0279,-0.0329,-0.0274,-0.0266,-0.0122,-0.012,-0.0083,-0.0073,-0.0055,-0.002,-0.0018,0.0103,0.0103,0,0,0,-0.0364,-0.0372,-0.0338,-0.0287,-0.0269,-0.0271,-0.0262,-0.0126,-0.0114,-0.0071,-0.0053,-0.0019,-0.0017,0.0102,0.0103,0.0011,0,0,0,-0.0367,-0.0392,-0.0342,-0.0361,-0.0273,-0.0201,-0.0269,-0.0124,-0.0107,-0.0054,-0.0019,-0.0015,0.0102,0.0103,0.0014,-0.0042,0,0,0,-0.0396,-0.0395,-0.0387,-0.0364,-0.0318,-0.0203,-0.0182,-0.012,-0.0097,-0.0021,-0.0015,0.0102,0.0102,0.0015,-0.0038,0.0002,0,0,0,-0.0427,-0.0449,-0.0388,-0.0399,-0.032,-0.026,-0.0183,-0.0125,-0.0068,-0.0018,0.0102,0.0103,0.0016,-0.0035,0.0004,0.006,0.0057,0,0,-0.0478,-0.0456,-0.0461,-0.0404,-0.0388,-0.0274,-0.023,-0.0125,-0.0048,0.006,0.0063,0.0013,-0.0037,0.0002,0.0075,0.0071,0,0,0,-0.0491,-0.0503,-0.0485,-0.0458,-0.0384,-0.0312,-0.0196,-0.0131,-0.0032,-0.0015,0.0044,0.0016,0.0044,0.0082,0.008,0.0104,0.0104,0.0104,0.0104,-0.0607,-0.0563,-0.0577,-0.0515,-0.0464,-0.0328,-0.0256,-0.014,-0.0065,-0.0032,-0.0036,-0.004,-0.0001,-0.0002,0.0001,0.0001,0.0001,0.0001,0.0,-0.071,-0.0726,-0.0656,-0.0658,-0.0553,-0.0494,-0.0313,-0.0237,-0.0114,-0.0074,-0.0041,0.0011,-0.001,-0.0006,-0.0005,-0.0004,-0.0003,-0.0003,-0.0003,-0.0804,-0.0808,-0.0796,-0.0788,-0.0736,-0.0602,-0.0527,-0.0374,-0.0212,-0.0182,-0.0065,-0.0063,-0.009,-0.0145,-0.0145,-0.0145,-0.0145,-0.0145,-0.0145,-0.0913,-0.0899,-0.0947,-0.0921,-0.0915,-0.0848,-0.0649,-0.0533,-0.0297,-0.0157,-0.0155,-0.0088,-0.0083,-0.0095,-0.0147,-0.0146,-0.0146,-0.0146,-0.0146,-0.1036,-0.1027,-0.1112,-0.1131,-0.111,-0.1069,-0.0872,-0.0565,-0.0393,-0.0257,-0.01,-0.0101,-0.0053,-0.0049,-0.0058,-0.0096,-0.0096,-0.0096,-0.0096,-0.1121,-0.1123,-0.1246,-0.1302,-0.13,-0.1173,-0.0992,-0.0645,-0.0287,-0.0106,-0.0106,-0.0085,-0.0086,-0.0038,-0.0034,-0.0041,-0.0076,-0.0076,-0.0077,-0.1201,-0.1234,-0.1338,-0.1386,-0.1388,-0.1267,-0.1069,-0.0659,-0.0188,-0.0081,-0.0156,-0.0084,-0.0051,-0.0053,0.0026,0.0029,0.002,0,0]}],[{"header":{"parameterUnit":"m.s-1","parameterCategory":2,"la1":30.2992,"la2":30.254,"lo1":-89.0895,"lo2":-89.0443,"dy":0.0025,"dx":0.0025,"nx":19,"ny":19,"refTime":"2026-04-07T09:00:00:Z","depth":"4","parameterNumber":2,"parameterNumberName":"U-component_of_CURRENTS"},"data":[0,0,0,-0.1656,-0.166,-0.1817,-0.1817,-0.1894,-0.1894,0,0,0,0,0,0,0,0,0,0,0,-0.1604,-0.1605,-0.1656,-0.166,-0.1817,-0.1818,-0.1894,-0.1894,0,0,0,0,0,0,0,0,0,0,0,-0.1603,-0.1605,-0.1606,-0.1661,-0.1817,-0.1818,-0.1894,-0.1805,0,0,0,0,0,0,0,0,0,0,-0.1668,-0.164,-0.1604,-0.1606,-0.1662,-0.1817,-0.1818,-0.1802,-0.1811,-0.1788,0,-0.1824,0,-0.1859,-0.1897,-0.1897,0,0,0,-0.1657,-0.1634,-0.1675,-0.1607,-0.1663,-0.1816,-0.1745,-0.1808,-0.1817,-0.1798,-0.1826,-0.183,-0.1861,-0.1897,-0.1897,-0.1992,-0.1993,0,0,-0.1648,-0.1629,-0.1669,-0.1681,-0.1717,-0.174,-0.175,-0.1815,-0.1827,-0.1826,-0.1832,-0.1862,-0.1897,-0.1897,-0.1992,-0.1993,0,0,0,-0.1626,-0.1622,-0.1665,-0.1677,-0.1715,-0.1745,-0.1756,-0.1825,-0.184,-0.1833,-0.1863,-0.1897,-0.1898,-0.1991,-0.1992,-0.2053,0,0,0,-0.162,-0.161,-0.1661,-0.165,-0.1715,-0.179,-0.1764,-0.1835,-0.1844,-0.1862,-0.1897,-0.1898,-0.199,-0.1991,-0.2049,-0.2075,0,0,0,-0.1594,-0.1607,-0.1629,-0.1649,-0.1719,-0.179,-0.1809,-0.1839,-0.1861,-0.1897,-0.1898,-0.1989,-0.1991,-0.2046,-0.207,-0.2086,0,0,0,-0.1561,-0.1602,-0.1629,-0.1691,-0.1717,-0.1823,-0.181,-0.1889,-0.1927,-0.1897,-0.199,-0.1992,-0.2045,-0.2067,-0.2084,-0.1812,0,0,0,-0.1588,-0.1605,-0.1642,-0.1671,-0.1768,-0.18,-0.1902,-0.1944,-0.1942,-0.1957,-0.1961,-0.2051,-0.2069,-0.2086,-0.1922,0,0,0,0,-0.1635,-0.1662,-0.1698,-0.1767,-0.1841,-0.192,-0.1971,-0.1992,-0.2044,-0.1974,-0.207,-0.2081,-0.2089,-0.1924,-0.2001,-0.2,-0.2,-0.2,-0.2,-0.1616,-0.1676,-0.1747,-0.1832,-0.1906,-0.2009,-0.207,-0.2108,-0.2094,-0.2133,-0.2145,-0.2221,-0.2051,-0.2162,-0.2162,-0.2163,-0.2163,-0.2163,-0.2163,-0.1637,-0.1666,-0.1774,-0.1865,-0.1965,-0.2057,-0.2164,-0.2186,-0.2249,-0.2223,-0.2227,-0.2019,-0.217,-0.2169,-0.2168,-0.2167,-0.2166,-0.2166,-0.2166,-0.1588,-0.161,-0.17,-0.1833,-0.1966,-0.209,-0.2176,-0.2264,-0.23,-0.2334,-0.2131,-0.2259,-0.2235,-0.2328,-0.2329,-0.2329,-0.2329,-0.2329,-0.2329,-0.1477,-0.157,-0.1634,-0.1797,-0.1881,-0.201,-0.2188,-0.2222,-0.2296,-0.2175,-0.2347,-0.2276,-0.227,-0.2245,-0.2333,-0.2332,-0.2332,-0.2331,-0.2331,-0.1371,-0.1434,-0.1506,-0.159,-0.1765,-0.1846,-0.2059,-0.2084,-0.2098,-0.2039,-0.2077,-0.2089,-0.2035,-0.2036,-0.1999,-0.2018,-0.2014,-0.2011,0,-0.1269,-0.1316,-0.1374,-0.145,-0.1533,-0.1723,-0.1707,-0.1796,-0.1867,-0.1804,-0.2073,-0.2115,-0.2121,-0.2059,-0.2055,-0.201,0,0,0,-0.1178,-0.1219,-0.1207,-0.1321,-0.1409,-0.151,-0.1687,-0.1651,-0.1869,-0.1815,-0.1931,-0.1952,-0.218,-0.2343,-0.2288,-0.2282,-0.2237,0,0]},{"header":{"parameterUnit":"m.s-1","parameterCategory":2,"la1":30.2992,"la2":30.254,"lo1":-89.0895,"lo2":-89.0443,"dy":0.0025,"dx":0.0025,"nx":19,"ny":19,"refTime":"2026-04-07T09:00:00:Z","depth":"4","parameterNumber":3,"parameterNumberName":"V-component_of_CURRENTS"},"data":[0,0,0,-0.0256,-0.0255,-0.0174,-0.0174,-0.0028,-0.0026,0,0,0,0,0,0,0,0,0,0,0,-0.0286,-0.0286,-0.0256,-0.0255,-0.0175,-0.0174,-0.0028,-0.0026,0,0,0,0,0,0,0,0,0,0,0,-0.0286,-0.0286,-0.0286,-0.0255,-0.0175,-0.0174,-0.0028,-0.0095,0,0,0,0,0,0,0,0,0,0,-0.0177,-0.0223,-0.0286,-0.0286,-0.0255,-0.0175,-0.0174,-0.0099,-0.0091,-0.0057,0,-0.0059,0,-0.0045,-0.0017,-0.0017,0,0,0,-0.0237,-0.023,-0.0206,-0.0286,-0.0254,-0.0175,-0.0206,-0.0095,-0.0086,-0.0047,-0.0057,-0.0052,-0.0043,-0.0016,-0.0016,0.0085,0.0085,0,0,-0.0241,-0.0267,-0.0212,-0.0201,-0.0251,-0.0208,-0.0204,-0.009,-0.0089,-0.0057,-0.0049,-0.004,-0.0015,-0.0014,0.0085,0.0085,0,0,0,-0.0266,-0.0271,-0.025,-0.0207,-0.0199,-0.0207,-0.0201,-0.0093,-0.0086,-0.0047,-0.0039,-0.0015,-0.0013,0.0085,0.0085,0.0006,0,0,0,-0.0268,-0.0286,-0.0252,-0.0266,-0.0202,-0.0153,-0.0207,-0.0094,-0.0081,-0.0039,-0.0015,-0.0012,0.0084,0.0085,0.0008,-0.0049,0,0,0,-0.0287,-0.0288,-0.0284,-0.0268,-0.024,-0.0154,-0.014,-0.0091,-0.0076,-0.0017,-0.0011,0.0084,0.0085,0.0009,-0.0044,-0.0019,0,0,0,-0.0307,-0.0324,-0.0285,-0.0297,-0.0242,-0.0203,-0.0141,-0.01,-0.0055,-0.0014,0.0084,0.0085,0.001,-0.0042,-0.0017,-0.0066,0,0,0,-0.0342,-0.0329,-0.0335,-0.0298,-0.0295,-0.0211,-0.0185,-0.0102,-0.0037,0.0053,0.0056,0.0007,-0.0044,-0.0019,-0.0053,0,0,0,0,-0.0354,-0.0365,-0.0354,-0.0343,-0.0293,-0.025,-0.0161,-0.011,-0.003,-0.0012,0.0033,0.0004,0.0022,0.0001,0.0086,0.0086,0.0086,0.0085,0.0085,-0.0433,-0.0408,-0.0426,-0.039,-0.0359,-0.0267,-0.0218,-0.0128,-0.0059,-0.0034,-0.0041,-0.0053,-0.0078,-0.0004,-0.0004,-0.0005,-0.0005,-0.0005,-0.0005,-0.0507,-0.0521,-0.0489,-0.0503,-0.0441,-0.0406,-0.0273,-0.0212,-0.012,-0.0079,-0.0055,-0.0058,-0.0012,-0.0011,-0.001,-0.0009,-0.0009,-0.0008,-0.0008,-0.0567,-0.0572,-0.0583,-0.0602,-0.0587,-0.05,-0.0455,-0.0338,-0.0207,-0.0188,-0.0152,-0.0088,-0.0102,-0.0155,-0.0156,-0.0156,-0.0156,-0.0156,-0.0156,-0.0626,-0.0634,-0.0691,-0.0702,-0.0721,-0.0693,-0.0559,-0.0475,-0.0326,-0.0253,-0.0203,-0.0102,-0.0097,-0.0108,-0.0158,-0.0158,-0.0158,-0.0157,-0.0157,-0.069,-0.0704,-0.0791,-0.0832,-0.0867,-0.0834,-0.0722,-0.0529,-0.0437,-0.0341,-0.0253,-0.0248,-0.0216,-0.0207,-0.0221,-0.0307,-0.0307,-0.0308,0,-0.0734,-0.0746,-0.0872,-0.095,-0.0976,-0.0909,-0.079,-0.0658,-0.0466,-0.0468,-0.0438,-0.0348,-0.034,-0.0312,-0.0305,-0.0327,0,0,0,-0.0776,-0.0813,-0.0907,-0.0987,-0.102,-0.0862,-0.075,-0.0681,-0.0508,-0.0413,-0.0329,-0.0323,-0.0278,-0.0165,-0.0101,-0.0095,-0.0108,0,0]}]]